Location: Humble ISD Astronomical Observatory
(29.9680°N, 95.2620°W)
Time: 22:31:27
(UTC-05:00)

Hubble Space Telescope - Visible Passes

Search period start: 18 March 2019 00:00
Search period end: 28 March 2019 00:00
Orbit: 537 x 540 km, 28.5° (Epoch: 17 March)

Date Brightness Start Highest point End Pass type
(mag) Time Alt. Az. Time Alt. Az. Time Alt. Az.
18 Mar 3.0 05:40:21 15° SSE 05:40:21 15° SSE 05:41:28 10° SSE visible
21 Mar 2.9 20:29:58 10° S 20:31:29 12° SSE 20:31:58 12° SE visible
22 Mar 2.7 20:18:29 10° S 20:20:55 15° SSE 20:22:32 13° SE visible
22 Mar 3.7 21:57:46 10° WSW 21:57:55 11° SW 21:57:55 11° SW visible
23 Mar 2.5 20:07:23 10° SSW 20:10:21 19° SSE 20:13:02 11° ESE visible
23 Mar 3.1 21:47:11 10° WSW 21:48:24 18° WSW 21:48:24 18° WSW visible
24 Mar 2.2 19:56:28 10° SSW 19:59:47 24° SSE 20:03:08 10° ESE visible
24 Mar 2.4 21:36:38 10° WSW 21:38:49 29° SW 21:38:49 29° SW visible
25 Mar 1.6 21:26:06 10° WSW 21:29:10 45° SW 21:29:10 45° SW visible
26 Mar 0.8 21:15:37 10° WSW 21:19:27 66° SSW 21:19:27 66° SSW visible
27 Mar 0.6 21:05:07 10° W 21:09:14 72° S 21:09:41 64° SE visible
